Meteo Giornale » Osservazioni meteo Francia » Parigi-Orly

ore: 15:30 - Osservazioni Meteo Parigi-Orly
Lat. 48° 44' N Lon. 2° 24' E Alt. 89 metri s.l.m.

sereno Europe/Paris

28 °C

Sereno

Temp. 24 Ore

14 °C

28 °C

Est

11.1 Km/h

Dew point 13 °C

Umidità 39 %

Visibilità  10 Km

Il sole sorge alle ore 06:53

Il sole tramonta alle ore 20:52

Data e Ora Cielo e Fenomeni T °C DP °C Um. % Pres. hPa Vis. km Vento km/h
Oggi h: 15:30 sereno Sereno 28 13 39 1022 10 E 11.1
Oggi h: 15:00 sereno Sereno 27 13 42 1023 10 E/NE 13
Oggi h: 14:30 sereno Sereno 27 13 42 1023 10 E/NE 9.3
Oggi h: 14:00 sereno Sereno 27 13 42 1023 10 NE 11.1
Oggi h: 13:30 sereno Sereno 27 14 44 1023 10 NE 13
Oggi h: 13:00 sereno Sereno 25 13 47 1024 10 E/NE 9.3
Oggi h: 12:30 sereno Sereno 25 13 47 1024 10 NE 11.1
Oggi h: 12:00 sereno Sereno 24 13 50 1024 10 E/NE 13
Oggi h: 11:30 sereno Sereno 23 13 53 1024 10 E/NE 13
Oggi h: 11:00 sereno Sereno 22 12 53 1024 10 E/NE 13
Oggi h: 10:30 sereno Sereno 21 12 56 1025 10 NE 11.1
Oggi h: 10:00 sereno Sereno 20 12 59 1025 10 N/NE 9.3
Oggi h: 09:30 sereno Sereno 19 12 63 1025 10 N/NE 9.3
Oggi h: 09:00 sereno Sereno 18 11 63 1025 10 N/NE 13
Oggi h: 08:30 sereno Sereno 17 11 67 1025 10 N/NE 7.4
Oggi h: 08:00 sereno Sereno 16 11 72 1025 10 N/NE 7.4
Oggi h: 07:30 sereno Sereno 15 10 72 1025 10 N 9.3
Oggi h: 07:00 sereno Sereno 14 10 76 1025 10 N/NE 9.3
Oggi h: 06:30 sereno Sereno 15 10 72 1025 10 N/NE 11.1
Oggi h: 06:00 sereno Sereno 16 10 67 1025 10 N/NE 9.3
Oggi h: 05:30 sereno Sereno 16 10 67 1025 10 N/NE 9.3
Oggi h: 05:00 sereno Sereno 16 10 67 1025 10 N/NE 11.1
Oggi h: 04:30 sereno Sereno 16 10 67 1025 10 N/NE 11.1
Oggi h: 04:00 sereno Sereno 17 10 63 1025 10 N/NE 9.3
Oggi h: 03:30 sereno Sereno 17 11 67 1025 10 N/NE 9.3
Oggi h: 03:00 sereno Sereno 17 11 67 1025 10 N/NE 11.1
Oggi h: 02:30 sereno Sereno 17 11 67 1025 10 N/NE 11.1
Oggi h: 02:00 sereno Sereno 17 11 67 1026 10 N/NE 13
Oggi h: 01:30 sereno Sereno 18 11 63 1026 10 N/NE 13
Oggi h: 01:00 sereno Sereno 19 11 59 1026 10 N/NE 14.8
Oggi h: 00:30 sereno Sereno 19 11 59 1026 10 NE 14.8
Oggi h: 00:00 sereno Sereno 20 11 56 1026 10 N/NE 14.8
Ieri h: 23:30 sereno Sereno 19 9 52 1025 10 N 9.3
Ieri h: 23:00 sereno Sereno 20 9 49 1025 10 E/NE 7.4
Ieri h: 22:30 sereno Sereno 21 9 46 1025 10 E/NE 9.3
Ieri h: 22:00 sereno Sereno 21 9 46 1025 10 E/NE 13
Ieri h: 21:30 sereno Sereno 22 9 43 1025 10 E/NE 11.1
Ieri h: 21:00 sereno Sereno 23 8 38 1025 10 E/NE 13
Ieri h: 20:30 sereno Sereno 24 8 35 1024 10 E/NE 14.8
Ieri h: 19:30 sereno Sereno 25 9 36 1024 10 N/NE 11.1
Ieri h: 19:00 sereno Sereno 26 9 34 1024 10 N/NE 7.4
Ieri h: 18:30 sereno Sereno 26 10 36 1024 10 N 9.3
Ieri h: 18:00 sereno Sereno 26 9 34 1024 10 N 11.1
Ieri h: 17:30 sereno Sereno 26 9 34 1024 10 NE 9.3
Ieri h: 17:00 sereno Sereno 26 9 34 1024 10 NE 11.1